Weather reports worldwide

Advertisment
Hyeres, France (7667): temperature & dewpoint: 13.01.2021 05:00:00 - 19.01.2021 05:00:00 (CET)Hyeres, France (7667): temperature 5cm: 13.01.2021 05:00:00 - 19.01.2021 05:00:00 (CET)Hyeres, France (7667): wind speed & gusts: 13.01.2021 05:00:00 - 19.01.2021 05:00:00 (CET)Hyeres, France (7667): wind direction: 13.01.2021 05:00:00 - 19.01.2021 05:00:00 (CET)Hyeres, France (7667): reduced air pressure: 13.01.2021 05:00:00 - 19.01.2021 05:00:00 (CET)Hyeres, France (7667): visibility: 13.01.2021 05:00:00 - 19.01.2021 05:00:00 (CET)Hyeres, France (7667): precipitation: 13.01.2021 05:00:00 - 19.01.2021 05:00:00 (CET)
Date & Time tt [°C] td [°C] tt 5cm [°C] ff [km/h] ff [kn] fx [km/h] fx [kn] dd ppp [hPa] vv [km] rr [mm]
19.01.2021 05:00:00 3,1 0,5 -0,9 6 3 13 7 N 1024,7 60 0,0
19.01.2021 04:00:00 3,4 0,8 -1,2 6 3 10 5 N 1024,8 60 0,0
19.01.2021 03:00:00 3,8 1,0 -0,1 5 3 10 5 N 1025,1 60 0,0
19.01.2021 02:00:00 4,3 1,2 0,5 6 3 17 9 NNW 1025,0 60 0,0
19.01.2021 01:00:00 4,5 1,2 1,4 5 3 19 10 N 1025,2 56 0,0
19.01.2021 00:00:00 4,8 1,5 -1,0 10 5 17 9 NW 1025,4 57 0,0
18.01.2021 23:00:00 5,4 1,5 0,8 9 5 16 9 NW 1025,3 55 0,0
18.01.2021 22:00:00 5,8 1,1 0,6 10 6 16 8 NW 1025,1 51 0,0
18.01.2021 21:00:00 5,0 0,7 0,7 5 3 13 7 N 1025,0 48 0,0
18.01.2021 20:00:00 6,6 1,7 2,8 10 5 16 9 NW 1024,6 28 0,0
18.01.2021 19:00:00 7,5 1,6 3,7 9 5 14 8 WNW 1024,3 42 0,0
18.01.2021 18:00:00 9,6 2,7 5,2 10 5 13 7 NW 1023,8 31 0,0
18.01.2021 17:00:00 12,1 2,0 10,5 4 2 8 5 NW 1023,2 60 0,0
18.01.2021 16:00:00 13,5 1,5 14,4 3 2 12 7 NE 1023,0 52 0,0
18.01.2021 15:00:00 12,6 0,7 14,5 7 4 15 8 SE 1022,7 57 0,0
18.01.2021 14:00:00 12,3 0,1 14,8 9 5 21 11 E 1022,7 20 0,0
18.01.2021 13:00:00 11,9 -1,6 14,7 10 6 26 14 N 1022,7 60 0,0
18.01.2021 12:00:00 11,4 -2,1 11,9 16 8 31 17 N 1023,1 60 0,0
18.01.2021 11:00:00 10,0 -3,3 10,7 20 11 36 19 NNW 1022,9 60 0,0
18.01.2021 10:00:00 8,6 -3,3 3,9 16 9 32 17 NNW 1022,7 60 0,0
18.01.2021 09:00:00 6,7 -3,3 2,0 7 4 21 12 WNW 1022,4 55 0,0
18.01.2021 08:00:00 5,6 -4,3 1,2 14 8 18 10 NW 1021,8 60 0,0
18.01.2021 07:00:00 5,4 -4,5 0,7 10 6 19 10 WNW 1021,9 60 0,0
18.01.2021 06:00:00 5,9 -4,9 1,7 8 5 16 9 NNW 1021,4 60 0,0
18.01.2021 05:00:00 5,7 -4,5 -1,3 13 7 21 11 NNW 1021,4 60 0,0
18.01.2021 04:00:00 6,0 -4,8 1,4 13 7 20 11 N 1021,4 60 0,0
18.01.2021 03:00:00 7,0 -5,1 2,9 11 6 29 16 NNW 1021,4 60 0,0
18.01.2021 02:00:00 8,0 -4,8 3,1 15 8 22 12 NW 1020,3 60 0,0
18.01.2021 01:00:00 8,4 -4,8 4,2 11 6 34 19 NW 1020,1 60 0,0
18.01.2021 00:00:00 8,8 -4,1 5,4 21 11 49 26 N 1019,8 60 0,0
17.01.2021 23:00:00 9,4 -3,9 6,4 31 17 54 29 N 1018,7 60 0,0
17.01.2021 22:00:00 9,8 -4,2 6,7 28 15 56 31 N 1018,2 60 0,0
17.01.2021 21:00:00 9,7 -4,3 6,8 31 17 74 40 NNW 1017,5 60 0,0
17.01.2021 20:00:00 9,9 -3,4 7,0 32 18 62 34 NNW 1017,1 60 0,0
17.01.2021 19:00:00 10,7 -2,4 7,8 43 23 77 42 NW 1016,4 60 0,0
17.01.2021 18:00:00 11,6 -3,0 7,9 32 18 61 33 NW 1015,7 60 0,0
17.01.2021 17:00:00 12,6 -2,5 10,5 35 19 64 35 NW 1014,5 28 0,0
17.01.2021 16:00:00 14,0 -2,9 13,2 26 14 53 29 NW 1014,1 22 0,0
17.01.2021 15:00:00 14,6 -1,5 14,6 31 17 65 35 NW 1013,9 19 0,0
17.01.2021 14:00:00 14,7 -1,8 14,9 40 21 64 35 WNW 1013,8 18 0,0
17.01.2021 13:00:00 15,3 -2,2 15,1 37 20 70 38 WNW 1014,5 26 0,0
17.01.2021 12:00:00 15,9 -2,6 15,4 34 18 64 35 WNW 1014,8 37 0,0
17.01.2021 11:00:00 15,3 -0,5 13,7 39 21 61 33 WNW 1015,2 48 0,0
17.01.2021 10:00:00 13,7 1,0 8,4 30 16 52 28 NW 1014,9 60 0,0
17.01.2021 09:00:00 11,0 2,3 6,8 30 16 52 28 W 1014,4 60 0,0
17.01.2021 08:00:00 9,3 2,6 6,4 32 17 58 31 W 1014,9 60 0,0
17.01.2021 07:00:00 8,8 1,7 6,0 40 22 63 34 W 1014,9 60 0,0
17.01.2021 06:00:00 8,5 0,9 6,0 34 18 54 29 W 1015,6 60 0,0
17.01.2021 05:00:00 8,4 0,4 5,9 29 16 49 26 W 1015,8 60 0,0
17.01.2021 04:00:00 8,9 0,6 6,2 27 15 47 25 W 1016,7 60 0,0
17.01.2021 03:00:00 9,7 0,6 6,4 23 12 62 34 WNW 1016,9 60 0,0
17.01.2021 02:00:00 11,0 1,0 1,1 41 22 64 34 NW 1016,6 60 0,0
17.01.2021 01:00:00 3,5 -0,7 0,4 8 4 11 6 ENE 1018,1 45 0,0
17.01.2021 00:00:00 4,8 0,0 1,9 6 4 11 6 NNE 1018,9 24 0,0
16.01.2021 23:00:00 5,2 0,6 1,8 6 4 16 9 WNW 1019,6 26 0,0
16.01.2021 22:00:00 5,5 1,0 1,7 8 4 13 7 NNW 1019,9 19 0,0
16.01.2021 21:00:00 5,7 1,4 1,4 9 5 15 8 NW 1020,7 19 0,0
16.01.2021 20:00:00 5,8 2,3 1,1 6 3 8 5 NNE 1021,1 12 0,0
16.01.2021 19:00:00 5,8 1,9 1,0 0 0 9 5 N 1021,3 16 0,0
16.01.2021 18:00:00 7,1 2,4 1,6 3 2 6 4 NW 1021,3 11 0,0
16.01.2021 17:00:00 9,4 2,0 6,0 3 2 16 9 WNW 1021,2 18 0,0
16.01.2021 16:00:00 10,8 2,4 9,9 10 5 19 10 N 1021,0 59 0,0
16.01.2021 15:00:00 10,1 1,7 10,0 13 7 19 11 N 1021,1 60 0,0
16.01.2021 14:00:00 9,8 1,2 10,4 12 7 19 10 NNW 1020,9 36 0,0
16.01.2021 13:00:00 9,7 1,6 7,8 10 5 16 9 NW 1021,2 41 0,0
16.01.2021 12:00:00 8,5 0,0 6,5 10 6 17 9 NNW 1021,6 53 0,0
16.01.2021 11:00:00 7,9 -0,8 6,3 10 6 18 10 NNW 1021,7 60 0,0
16.01.2021 10:00:00 7,6 -1,4 5,4 12 6 21 11 NW 1021,2 16 0,0
16.01.2021 09:00:00 7,4 -1,8 5,0 12 6 19 10 NW 1020,7 60 0,0
16.01.2021 08:00:00 7,2 -1,5 5,0 13 7 19 10 NNW 1020,3 60 0,0
16.01.2021 07:00:00 7,4 -1,6 5,2 9 5 15 8 NNW 1020,3 60 0,0
16.01.2021 06:00:00 7,7 -1,5 5,4 6 3 19 10 NW 1019,7 60 0,0
16.01.2021 05:00:00 7,7 -0,5 5,4 11 6 21 11 NNW 1019,6 60 0,0
16.01.2021 04:00:00 7,8 -0,7 4,9 9 5 21 11 NNW 1019,2 60 0,0
16.01.2021 03:00:00 7,4 -0,3 3,1 10 6 18 10 NW 1019,1 60 0,0
16.01.2021 02:00:00 7,7 -0,3 4,3 14 8 21 11 NW 1018,1 60 0,0
16.01.2021 01:00:00 7,3 -0,7 4,5 9 5 23 12 NNW 1017,8 60 0,0
16.01.2021 00:00:00 7,4 -0,6 4,8 10 5 24 13 NW 1017,5 60 0,0
15.01.2021 23:00:00 8,1 -0,7 4,0 15 8 28 15 NNW 1016,6 60 0,0
15.01.2021 22:00:00 7,0 -1,7 0,2 12 6 18 10 N 1016,2 60 0,0
15.01.2021 21:00:00 6,5 -1,9 1,2 3 1 16 9 N 1015,7 60 0,0
15.01.2021 20:00:00 7,9 -1,9 2,6 10 5 18 10 N 1015,2 60 0,0
15.01.2021 19:00:00 8,7 -1,2 5,2 11 6 24 13 NW 1014,5 60 0,0
15.01.2021 18:00:00 9,4 -0,5 6,2 16 8 34 18 NW 1014,1 60 0,0
15.01.2021 17:00:00 11,3 -0,2 9,4 23 13 46 25 NW 1014,1 45 0,0
15.01.2021 16:00:00 12,8 0,5 12,5 27 15 45 24 WNW 1013,5 39 0,0
15.01.2021 15:00:00 13,9 1,8 14,4 22 12 45 24 WNW 1013,3 36 0,0
15.01.2021 14:00:00 14,2 1,8 13,7 18 10 43 23 NW 1013,5 39 0,0
15.01.2021 13:00:00 14,5 1,7 15,2 19 11 45 24 NW 1014,3 43 0,0
15.01.2021 12:00:00 14,1 1,7 14,5 16 9 39 21 NW 1014,8 47 0,0
15.01.2021 11:00:00 13,5 1,8 13,0 24 13 52 28 NW 1014,8 58 0,0
15.01.2021 10:00:00 12,9 1,5 9,5 27 15 54 29 NW 1014,2 60 0,0
15.01.2021 09:00:00 12,3 1,6 9,1 22 12 51 28 NW 1013,4 59 0,0
15.01.2021 08:00:00 12,3 1,9 9,5 31 17 69 38 WNW 1012,7 60 0,0
15.01.2021 07:00:00 12,4 1,7 8,7 28 15 50 27 WNW 1012,5 60 0,0
15.01.2021 06:00:00 12,3 1,9 8,5 19 10 45 24 NW 1012,3 60 0,0
15.01.2021 05:00:00 12,6 2,2 9,7 24 13 48 26 NW 1012,8 60 0,0
15.01.2021 04:00:00 12,9 1,8 9,3 24 13 59 32 WNW 1013,1 60 0,0
15.01.2021 03:00:00 12,4 2,5 8,9 31 17 57 31 NW 1012,8 60 0,0
15.01.2021 02:00:00 12,3 2,7 8,9 32 17 55 30 WNW 1012,0 60 0,0
15.01.2021 01:00:00 13,0 2,5 9,8 21 11 63 34 NNW 1012,3 60 0,0
15.01.2021 00:00:00 13,7 2,6 10,6 38 20 81 44 WNW 1012,0 60 0,0
14.01.2021 23:00:00 13,8 3,0 10,4 40 21 80 43 WNW 1011,5 60 0,0
14.01.2021 22:00:00 13,6 2,5 10,1 42 23 62 34 WNW 1012,2 60 0,0
14.01.2021 21:00:00 13,3 2,2 9,5 24 13 50 27 NW 1012,7 60 0,0
14.01.2021 20:00:00 13,2 2,1 9,5 23 12 51 28 NNW 1011,9 60 0,0
14.01.2021 19:00:00 13,8 2,1 10,3 32 17 61 33 NNW 1011,4 60 0,0
14.01.2021 18:00:00 14,0 1,9 9,7 26 14 46 25 NW 1010,9 60 0,0
14.01.2021 17:00:00 14,6 1,8 12,2 24 13 57 31 WNW 1010,8 48 0,0
14.01.2021 16:00:00 15,4 1,5 14,6 31 17 60 32 WNW 1010,6 30 0,0
14.01.2021 15:00:00 16,0 1,3 16,0 36 19 60 33 WNW 1010,6 35 0,0
14.01.2021 14:00:00 16,8 1,2 16,6 28 15 56 30 WNW 1011,1 41 0,0
14.01.2021 13:00:00 16,5 1,4 16,6 24 13 51 27 WNW 1012,1 56 0,0
14.01.2021 12:00:00 15,2 2,0 15,6 17 9 45 24 WNW 1013,0 56 0,0
14.01.2021 11:00:00 14,2 1,5 14,2 16 9 28 15 W 1013,3 60 0,0
14.01.2021 10:00:00 13,1 3,7 8,8 8 5 36 19 SW 1013,6 59 0,0
14.01.2021 09:00:00 12,8 2,0 8,0 21 11 42 23 WNW 1014,0 58 0,0
14.01.2021 08:00:00 11,5 3,0 5,0 19 10 36 19 WNW 1013,9 60 0,0
14.01.2021 07:00:00 10,6 3,4 3,9 14 7 34 18 W 1014,2 60 0,0
14.01.2021 06:00:00 11,0 3,5 6,5 19 10 29 16 WSW 1014,4 60 0,0
14.01.2021 05:00:00 10,8 3,8 7,4 13 7 35 19 WSW 1014,6 10 0,0
14.01.2021 04:00:00 11,3 4,0 8,0 18 10 36 19 W 1015,1 60 0,0
14.01.2021 03:00:00 11,5 5,1 8,9 27 15 40 22 W 1015,6 60 0,0
14.01.2021 02:00:00 11,8 5,0 9,1 29 15 66 36 W 1015,5 60 0,0
14.01.2021 01:00:00 11,8 5,4 9,2 40 22 55 30 WSW 1015,9 60 0,0
14.01.2021 00:00:00 12,1 5,0 9,3 24 13 49 27 WSW 1016,5 60 0,0
13.01.2021 23:00:00 12,7 4,4 9,4 21 12 36 19 W 1016,5 60 0,0
13.01.2021 22:00:00 13,7 4,0 9,6 22 12 41 22 W 1016,7 60 0,0
13.01.2021 21:00:00 13,8 4,4 10,4 22 12 51 28 WNW 1017,0 60 0,0
13.01.2021 20:00:00 13,8 4,4 10,1 21 11 53 28 WNW 1017,5 60 0,0
13.01.2021 19:00:00 14,3 4,6 11,2 25 14 46 25 NW 1017,3 60 0,0
13.01.2021 18:00:00 14,8 4,5 11,8 35 19 55 30 W 1016,8 60 0,0
13.01.2021 17:00:00 15,5 4,5 13,3 32 18 52 28 WNW 1016,5 28 0,0
13.01.2021 16:00:00 16,3 5,0 15,5 31 17 64 34 WNW 1016,6 20 0,0
13.01.2021 15:00:00 16,5 5,4 16,3 34 19 63 34 W 1016,4 20 0,0
13.01.2021 14:00:00 16,2 5,5 16,2 35 19 61 33 W 1016,5 16 0,0
13.01.2021 13:00:00 15,8 5,1 15,8 40 22 64 35 WNW 1016,8 17 0,0
13.01.2021 12:00:00 15,7 4,7 14,5 42 23 68 37 WNW 1017,1 17 0,0
13.01.2021 11:00:00 14,4 4,7 13,3 41 22 70 38 WNW 1017,1 19 0,0
13.01.2021 10:00:00 14,1 4,4 10,3 45 24 68 37 WNW 1016,7 20 0,0
13.01.2021 09:00:00 12,7 4,1 9,3 47 25 69 38 W 1016,1 23 0,0
13.01.2021 08:00:00 12,0 4,0 9,0 42 23 69 38 WNW 1016,1 60 0,0
13.01.2021 07:00:00 11,7 3,7 8,7 44 24 68 37 W 1015,8 60 0,0
13.01.2021 06:00:00 11,4 3,4 8,3 44 24 61 33 W 1016,0 60 0,0
13.01.2021 05:00:00 10,9 3,2 8,2 40 21 62 33 W 1016,2 60 0,0

tt = temperature
td = dewpoint
tt 5cm = temperature 5cm
ff = wind speed
fx = gusts
dd = wind direction
ppp = reduced air pressure
vv = visibility
rr = precipitation

Next stations